| time (UTC) | temp C | wind direction | speed KPH | gust KPH | rain 1hr cm | rain 24hr cm | rain mn cm | humidity % | barometer mb |
| 20260510070033 | 14 | 68 | 1.6 | 4.8 | 0.00 | 0.00 | 0.00 | 69 | 1012.2 |
| 20260510065039 | 14 | 50 | 1.6 | 3.2 | 0.00 | 0.00 | 0.00 | 69 | 1012.2 |
| 20260510065033 | 13 | 50 | 1.6 | 3.2 | 0.00 | 0.00 | 0.00 | 69 | 1012.3 |
| 20260510064010 | 13 | 77 | 1.6 | 4.8 | 0.00 | 0.00 | 0.00 | 69 | 1012.3 |
| 20260510063040 | 13 | 77 | 1.6 | 4.8 | 0.00 | 0.00 | 0.00 | 70 | 1012.3 |
| 20260510063035 | 13 | 77 | 1.6 | 4.8 | 0.00 | 0.00 | 0.00 | 71 | 1012.3 |
| 20260510062007 | 13 | 93 | 1.6 | 4.8 | 0.00 | 0.00 | 0.00 | 71 | 1012.3 |
| 20260510061015 | 13 | 79 | 1.6 | 8.0 | 0.00 | 0.00 | 0.00 | 71 | 1012.3 |
| 20260510060036 | 13 | 79 | 1.6 | 8.0 | 0.00 | 0.00 | 0.00 | 69 | 1012.3 |
| 20260510060031 | 13 | 79 | 1.6 | 8.0 | 0.00 | 0.00 | 0.00 | 68 | 1012.3 |
| 20260510055042 | 13 | 96 | 1.6 | 4.8 | 0.00 | 0.00 | 0.00 | 69 | 1012.3 |
| 20260510054035 | 12 | 140 | 0.0 | 3.2 | 0.00 | 0.00 | 0.00 | 72 | 1012.4 |
| 20260510053043 | 12 | 129 | 0.0 | 3.2 | 0.00 | 0.00 | 0.00 | 75 | 1012.4 |
| 20260510052016 | 12 | 172 | 0.0 | 0.0 | 0.00 | 0.00 | 0.00 | 75 | 1012.4 |
| 20260510052014 | 12 | 172 | 0.0 | 0.0 | 0.00 | 0.00 | 0.00 | 77 | 1012.5 |
| 20260510051043 | 12 | 172 | 0.0 | 0.0 | 0.00 | 0.00 | 0.00 | 77 | 1012.5 |
| 20260510051037 | 12 | 172 | 0.0 | 0.0 | 0.00 | 0.00 | 0.00 | 78 | 1012.6 |
| 20260510050037 | 11 | 172 | 0.0 | 3.2 | 0.00 | 0.00 | 0.00 | 77 | 1012.6 |
| 20260510045047 | 11 | 160 | 0.0 | 3.2 | 0.00 | 0.00 | 0.00 | 77 | 1012.6 |
| 20260510045044 | 11 | 160 | 0.0 | 3.2 | 0.00 | 0.00 | 0.00 | 77 | 1012.7 |
| 20260510044017 | 11 | 168 | 0.0 | 3.2 | 0.00 | 0.00 | 0.00 | 77 | 1012.7 |
| 20260510043016 | 11 | 183 | 1.6 | 3.2 | 0.00 | 0.00 | 0.00 | 79 | 1012.7 |
| 20260510042016 | 11 | 189 | 0.0 | 3.2 | 0.00 | 0.00 | 0.00 | 79 | 1012.6 |
| 20260510041035 | 11 | 189 | 0.0 | 3.2 | 0.00 | 0.00 | 0.00 | 78 | 1012.6 |
| 20260510040039 | 11 | 184 | 1.6 | 3.2 | 0.00 | 0.00 | 0.00 | 78 | 1012.6 |
| 20260510040032 | 12 | 184 | 1.6 | 3.2 | 0.00 | 0.00 | 0.00 | 77 | 1012.7 |
| 20260510035046 | 12 | 167 | 0.0 | 3.2 | 0.00 | 0.00 | 0.00 | 77 | 1012.7 |
| 20260510035041 | 11 | 167 | 0.0 | 3.2 | 0.00 | 0.00 | 0.00 | 77 | 1012.8 |
| 20260510034009 | 11 | 186 | 0.0 | 0.0 | 0.00 | 0.00 | 0.00 | 77 | 1012.8 |
| 20260510034007 | 11 | 186 | 0.0 | 0.0 | 0.00 | 0.00 | 0.00 | 78 | 1012.9 |
| 20260510033014 | 11 | 189 | 1.6 | 3.2 | 0.00 | 0.00 | 0.00 | 78 | 1012.9 |
| 20260510032008 | 12 | 168 | 0.0 | 0.0 | 0.00 | 0.00 | 0.00 | 74 | 1012.9 |
| 20260510031038 | 12 | 168 | 0.0 | 0.0 | 0.00 | 0.00 | 0.00 | 74 | 1012.9 |
| 20260510031035 | 12 | 168 | 0.0 | 0.0 | 0.00 | 0.00 | 0.00 | 76 | 1013.0 |
| 20260510030012 | 12 | 180 | 0.0 | 3.2 | 0.00 | 0.00 | 0.00 | 76 | 1013.0 |
| 20260510025005 | 12 | 173 | 0.0 | 1.6 | 0.00 | 0.00 | 0.00 | 76 | 1013.1 |
| 20260510024040 | 12 | 173 | 0.0 | 1.6 | 0.00 | 0.00 | 0.00 | 78 | 1013.1 |
| 20260510024034 | 12 | 173 | 0.0 | 1.6 | 0.00 | 0.00 | 0.00 | 78 | 1013.3 |
| 20260510023007 | 12 | 180 | 1.6 | 3.2 | 0.00 | 0.00 | 0.00 | 78 | 1013.3 |
| 20260510022020 | 12 | 180 | 1.6 | 3.2 | 0.00 | 0.00 | 0.00 | 78 | 1013.3 |
| 20260510021005 | 12 | 165 | 0.0 | 0.0 | 0.00 | 0.00 | 0.00 | 78 | 1013.3 |
| 20260510020012 | 12 | 171 | 0.0 | 0.0 | 0.00 | 0.00 | 0.00 | 77 | 1013.4 |
| 20260510015009 | 12 | 155 | 0.0 | 3.2 | 0.00 | 0.00 | 0.00 | 77 | 1013.5 |
| 20260510014035 | 12 | 155 | 0.0 | 3.2 | 0.00 | 0.00 | 0.00 | 77 | 1013.5 |
| 20260510014031 | 12 | 155 | 0.0 | 3.2 | 0.00 | 0.00 | 0.00 | 78 | 1013.6 |
| 20260510013009 | 12 | 170 | 1.6 | 1.6 | 0.00 | 0.00 | 0.00 | 79 | 1013.7 |
| 20260510011037 | 11 | 170 | 0.0 | 3.2 | 0.00 | 0.00 | 0.00 | 80 | 1013.7 |
| 20260510010037 | 11 | 172 | 0.0 | 1.6 | 0.00 | 0.00 | 0.00 | 80 | 1013.7 |
| 20260510010031 | 12 | 172 | 0.0 | 1.6 | 0.00 | 0.00 | 0.00 | 79 | 1013.6 |
| 20260510005038 | 12 | 174 | 0.0 | 1.6 | 0.00 | 0.00 | 0.00 | 79 | 1013.6 |
| 20260510004012 | 12 | 220 | 0.0 | 0.0 | 0.00 | 0.00 | 0.00 | 79 | 1013.6 |
| 20260510003011 | 12 | 163 | 0.0 | 0.0 | 0.00 | 0.00 | 0.00 | 77 | 1013.7 |
| 20260510002010 | 12 | 148 | 0.0 | 0.0 | 0.00 | 0.00 | 0.00 | 77 | 1013.7 |
| 20260510001037 | 12 | 148 | 0.0 | 0.0 | 0.00 | 0.00 | 0.00 | 76 | 1013.8 |
| 20260510001031 | 12 | 148 | 0.0 | 0.0 | 0.00 | 0.00 | 0.00 | 77 | 1013.9 |
| 20260510000016 | 12 | 166 | 0.0 | 0.0 | 0.00 | 0.00 | 0.00 | 77 | 1013.9 |
| 20260510000014 | 12 | 167 | 0.0 | 0.0 | 0.00 | 0.00 | 0.00 | 78 | 1014.1 |
| 20260509235006 | 12 | 178 | 0.0 | 1.6 | 0.00 | 0.00 | 0.00 | 78 | 1014.2 |
| 20260509234006 | 12 | 174 | 0.0 | 0.0 | 0.00 | 0.00 | 0.00 | 78 | 1014.2 |
| 20260509233006 | 12 | 173 | 1.6 | 3.2 | 0.00 | 0.00 | 0.00 | 78 | 1014.3 |
| 20260509232014 | 12 | 173 | 0.0 | 3.2 | 0.00 | 0.00 | 0.00 | 78 | 1014.3 |
| 20260509232012 | 12 | 173 | 0.0 | 3.2 | 0.00 | 0.00 | 0.00 | 77 | 1014.3 |
| 20260509231016 | 12 | 173 | 0.0 | 3.2 | 0.00 | 0.00 | 0.00 | 77 | 1014.3 |
| 20260509231013 | 12 | 196 | 1.6 | 3.2 | 0.00 | 0.00 | 0.00 | 76 | 1014.3 |
| 20260509230038 | 12 | 196 | 1.6 | 3.2 | 0.00 | 0.00 | 0.00 | 76 | 1014.3 |
| 20260509230032 | 13 | 196 | 1.6 | 3.2 | 0.00 | 0.00 | 0.00 | 76 | 1014.2 |
| 20260509225013 | 13 | 214 | 0.0 | 0.0 | 0.00 | 0.00 | 0.00 | 76 | 1014.2 |
| 20260509225011 | 13 | 214 | 0.0 | 0.0 | 0.00 | 0.00 | 0.00 | 75 | 1014.2 |
| 20260509224028 | 13 | 214 | 0.0 | 0.0 | 0.00 | 0.00 | 0.00 | 74 | 1014.2 |
| 20260509223004 | 13 | 133 | 0.0 | 3.2 | 0.00 | 0.00 | 0.00 | 74 | 1014.2 |
| 20260509222010 | 13 | 190 | 0.0 | 0.0 | 0.00 | 0.00 | 0.00 | 74 | 1014.3 |
| 20260509221011 | 13 | 280 | 0.0 | 1.6 | 0.00 | 0.00 | 0.00 | 74 | 1014.3 |
| 20260509221008 | 13 | 280 | 0.0 | 1.6 | 0.00 | 0.00 | 0.00 | 74 | 1014.4 |
| 20260509220027 | 13 | 280 | 0.0 | 1.6 | 0.00 | 0.00 | 0.00 | 74 | 1014.4 |
| 20260509215046 | 13 | 185 | 0.0 | 1.6 | 0.00 | 0.00 | 0.00 | 72 | 1014.4 |
| 20260509214044 | 13 | 152 | 0.0 | 1.6 | 0.00 | 0.00 | 0.00 | 72 | 1014.4 |
| 20260509214036 | 14 | 152 | 0.0 | 1.6 | 0.00 | 0.00 | 0.00 | 71 | 1014.4 |
| 20260509213025 | 14 | 221 | 0.0 | 0.0 | 0.00 | 0.00 | 0.00 | 71 | 1014.4 |
| 20260509211035 | 14 | 172 | 0.0 | 0.0 | 0.00 | 0.00 | 0.00 | 70 | 1014.5 |
| 20260509211029 | 15 | 172 | 0.0 | 0.0 | 0.00 | 0.00 | 0.00 | 69 | 1014.5 |
| 20260509210004 | 15 | 190 | 0.0 | 1.6 | 0.00 | 0.00 | 0.00 | 69 | 1014.5 |
| 20260509205005 | 15 | 219 | 0.0 | 0.0 | 0.00 | 0.00 | 0.00 | 68 | 1014.4 |
| 20260509204043 | 15 | 219 | 0.0 | 0.0 | 0.00 | 0.00 | 0.00 | 66 | 1014.4 |
| 20260509203029 | 15 | 172 | 0.0 | 0.0 | 0.00 | 0.00 | 0.00 | 66 | 1014.4 |
| 20260509202021 | 15 | 174 | 1.6 | 3.2 | 0.00 | 0.00 | 0.00 | 66 | 1014.3 |
| 20260509201028 | 15 | 184 | 0.0 | 3.2 | 0.00 | 0.00 | 0.00 | 66 | 1014.3 |
| 20260509201021 | 16 | 184 | 0.0 | 3.2 | 0.00 | 0.00 | 0.00 | 66 | 1014.1 |
| 20260509200047 | 16 | 207 | 0.0 | 0.0 | 0.00 | 0.00 | 0.00 | 66 | 1014.1 |
| 20260509200038 | 16 | 207 | 0.0 | 0.0 | 0.00 | 0.00 | 0.00 | 65 | 1014.1 |
| 20260509195028 | 16 | 200 | 0.0 | 3.2 | 0.00 | 0.00 | 0.00 | 65 | 1014.1 |
| 20260509195022 | 16 | 200 | 0.0 | 3.2 | 0.00 | 0.00 | 0.00 | 64 | 1014.0 |
| 20260509194044 | 16 | 200 | 1.6 | 3.2 | 0.00 | 0.00 | 0.00 | 64 | 1014.0 |
| 20260509194035 | 16 | 200 | 1.6 | 3.2 | 0.00 | 0.00 | 0.00 | 62 | 1013.9 |
| 20260509193048 | 16 | 174 | 0.0 | 1.6 | 0.00 | 0.00 | 0.00 | 62 | 1013.9 |
| 20260509193041 | 17 | 174 | 0.0 | 1.6 | 0.00 | 0.00 | 0.00 | 60 | 1013.8 |
| 20260509192050 | 17 | 182 | 0.0 | 1.6 | 0.00 | 0.00 | 0.00 | 60 | 1013.8 |
| 20260509192043 | 17 | 182 | 0.0 | 1.6 | 0.00 | 0.00 | 0.00 | 58 | 1013.7 |
| 20260509191029 | 17 | 169 | 0.0 | 1.6 | 0.00 | 0.00 | 0.00 | 58 | 1013.7 |
| 20260509190043 | 18 | 174 | 0.0 | 3.2 | 0.00 | 0.00 | 0.00 | 55 | 1013.6 |
| 20260509190037 | 20 | 174 | 0.0 | 3.2 | 0.00 | 0.00 | 0.00 | 51 | 1013.5 |
| 20260509185028 | 20 | 174 | 1.6 | 1.6 | 0.00 | 0.00 | 0.00 | 51 | 1013.5 |
| 20260509185019 | 20 | 84 | 3.2 | 6.4 | 0.00 | 0.00 | 0.00 | 44 | 1013.4 |
| 20260509184046 | 20 | 84 | 3.2 | 6.4 | 0.00 | 0.00 | 0.00 | 44 | 1013.4 |
| 20260509184039 | 21 | 84 | 3.2 | 6.4 | 0.00 | 0.00 | 0.00 | 44 | 1013.2 |
| 20260509183049 | 21 | 99 | 1.6 | 4.8 | 0.00 | 0.00 | 0.00 | 44 | 1013.2 |
| 20260509183041 | 21 | 99 | 1.6 | 4.8 | 0.00 | 0.00 | 0.00 | 42 | 1013.1 |
| 20260509182013 | 21 | 75 | 1.6 | 6.4 | 0.00 | 0.00 | 0.00 | 42 | 1013.2 |
| 20260509181035 | 21 | 75 | 1.6 | 6.4 | 0.00 | 0.00 | 0.00 | 42 | 1013.2 |
| 20260509181026 | 21 | 75 | 1.6 | 6.4 | 0.00 | 0.00 | 0.00 | 44 | 1013.2 |
| 20260509175044 | 21 | 110 | 1.6 | 6.4 | 0.00 | 0.00 | 0.00 | 44 | 1013.1 |
| 20260509175039 | 21 | 110 | 1.6 | 6.4 | 0.00 | 0.00 | 0.00 | 42 | 1013.2 |
| 20260509174038 | 21 | 109 | 1.6 | 6.4 | 0.00 | 0.00 | 0.00 | 42 | 1013.2 |
| 20260509174030 | 21 | 109 | 1.6 | 6.4 | 0.00 | 0.00 | 0.00 | 40 | 1013.2 |
| 20260509173030 | 21 | 76 | 3.2 | 8.0 | 0.00 | 0.00 | 0.00 | 40 | 1013.2 |
| 20260509173028 | 22 | 76 | 3.2 | 8.0 | 0.00 | 0.00 | 0.00 | 40 | 1012.9 |
| 20260509172006 | 22 | 69 | 3.2 | 9.7 | 0.00 | 0.00 | 0.00 | 40 | 1012.9 |
| 20260509171045 | 22 | 69 | 3.2 | 9.7 | 0.00 | 0.00 | 0.00 | 39 | 1013.0 |
| 20260509171038 | 22 | 69 | 3.2 | 9.7 | 0.00 | 0.00 | 0.00 | 38 | 1013.2 |
| 20260509170021 | 22 | 22 | 1.6 | 6.4 | 0.00 | 0.00 | 0.00 | 38 | 1013.2 |
| 20260509170016 | 22 | 55 | 4.8 | 11.3 | 0.00 | 0.00 | 0.00 | 38 | 1013.1 |
| 20260509165041 | 22 | 55 | 4.8 | 11.3 | 0.00 | 0.00 | 0.00 | 38 | 1013.1 |
| 20260509165033 | 22 | 55 | 4.8 | 11.3 | 0.00 | 0.00 | 0.00 | 37 | 1013.1 |
| 20260509164007 | 22 | 61 | 3.2 | 9.7 | 0.00 | 0.00 | 0.00 | 37 | 1013.1 |
| 20260509163110 | 22 | 61 | 3.2 | 9.7 | 0.00 | 0.00 | 0.00 | 37 | 1013.1 |
| 20260509163108 | 22 | 61 | 3.2 | 9.7 | 0.00 | 0.00 | 0.00 | 39 | 1013.0 |
| 20260509162047 | 22 | 89 | 3.2 | 8.0 | 0.00 | 0.00 | 0.00 | 39 | 1013.0 |
| 20260509162041 | 22 | 89 | 3.2 | 8.0 | 0.00 | 0.00 | 0.00 | 39 | 1013.1 |
| 20260509161016 | 22 | 86 | 3.2 | 11.3 | 0.00 | 0.00 | 0.00 | 39 | 1013.1 |
| 20260509161014 | 22 | 51 | 3.2 | 8.0 | 0.00 | 0.00 | 0.00 | 38 | 1013.3 |
| 20260509160046 | 22 | 51 | 3.2 | 8.0 | 0.00 | 0.00 | 0.00 | 38 | 1013.3 |
| 20260509160040 | 22 | 51 | 3.2 | 8.0 | 0.00 | 0.00 | 0.00 | 38 | 1013.4 |
| 20260509155043 | 23 | 89 | 3.2 | 9.7 | 0.00 | 0.00 | 0.00 | 38 | 1013.4 |
| 20260509154008 | 23 | 77 | 4.8 | 11.3 | 0.00 | 0.00 | 0.00 | 38 | 1013.4 |
| 20260509153020 | 22 | 77 | 4.8 | 11.3 | 0.00 | 0.00 | 0.00 | 37 | 1013.5 |
| 20260509153015 | 22 | 42 | 4.8 | 11.3 | 0.00 | 0.00 | 0.00 | 36 | 1013.6 |
| 20260509152048 | 22 | 42 | 4.8 | 11.3 | 0.00 | 0.00 | 0.00 | 38 | 1013.8 |
| 20260509151013 | 22 | 67 | 4.8 | 11.3 | 0.00 | 0.00 | 0.00 | 38 | 1013.8 |
| 20260509145042 | 22 | 79 | 3.2 | 11.3 | 0.00 | 0.00 | 0.00 | 38 | 1014.0 |
| 20260509145036 | 22 | 79 | 3.2 | 11.3 | 0.00 | 0.00 | 0.00 | 37 | 1014.0 |
| 20260509144019 | 22 | 54 | 3.2 | 9.7 | 0.00 | 0.00 | 0.00 | 37 | 1014.0 |
| 20260509143008 | 22 | 98 | 4.8 | 11.3 | 0.00 | 0.00 | 0.00 | 37 | 1014.3 |
| 20260509141040 | 22 | 73 | 4.8 | 12.9 | 0.00 | 0.00 | 0.00 | 36 | 1014.4 |
| 20260509140005 | 22 | 74 | 4.8 | 11.3 | 0.00 | 0.00 | 0.00 | 37 | 1014.4 |
| 20260509135008 | 22 | 117 | 3.2 | 9.7 | 0.00 | 0.00 | 0.00 | 36 | 1014.6 |
| 20260509134036 | 22 | 117 | 3.2 | 9.7 | 0.00 | 0.00 | 0.00 | 36 | 1014.6 |
| 20260509134029 | 22 | 117 | 3.2 | 9.7 | 0.00 | 0.00 | 0.00 | 38 | 1014.7 |
| 20260509133016 | 22 | 75 | 3.2 | 9.7 | 0.00 | 0.00 | 0.00 | 38 | 1014.7 |
| 20260509132042 | 22 | 75 | 3.2 | 9.7 | 0.00 | 0.00 | 0.00 | 38 | 1014.8 |
| 20260509132036 | 22 | 75 | 3.2 | 9.7 | 0.00 | 0.00 | 0.00 | 37 | 1014.9 |
| 20260509131039 | 21 | 84 | 4.8 | 8.0 | 0.00 | 0.00 | 0.00 | 38 | 1015.0 |
| 20260509130041 | 22 | 78 | 3.2 | 11.3 | 0.00 | 0.00 | 0.00 | 39 | 1015.1 |
| 20260509125029 | 22 | 95 | 4.8 | 11.3 | 0.00 | 0.00 | 0.00 | 39 | 1015.1 |
| 20260509125021 | 21 | 95 | 4.8 | 11.3 | 0.00 | 0.00 | 0.00 | 41 | 1015.2 |
| 20260509124038 | 21 | 63 | 4.8 | 9.7 | 0.00 | 0.00 | 0.00 | 41 | 1015.3 |
| 20260509123040 | 21 | 63 | 4.8 | 11.3 | 0.00 | 0.00 | 0.00 | 41 | 1015.3 |
| 20260509123033 | 21 | 63 | 4.8 | 11.3 | 0.00 | 0.00 | 0.00 | 42 | 1015.5 |
| 20260509122007 | 21 | 74 | 3.2 | 12.9 | 0.00 | 0.00 | 0.00 | 41 | 1015.6 |
| 20260509121053 | 21 | 74 | 3.2 | 12.9 | 0.00 | 0.00 | 0.00 | 41 | 1015.6 |
| 20260509121050 | 21 | 74 | 3.2 | 12.9 | 0.00 | 0.00 | 0.00 | 42 | 1015.7 |
| 20260509120047 | 21 | 32 | 4.8 | 11.3 | 0.00 | 0.00 | 0.00 | 42 | 1015.7 |
| 20260509120042 | 20 | 32 | 4.8 | 11.3 | 0.00 | 0.00 | 0.00 | 45 | 1015.9 |
| 20260509115043 | 20 | 58 | 3.2 | 9.7 | 0.00 | 0.00 | 0.00 | 45 | 1015.9 |
| 20260509115034 | 20 | 58 | 3.2 | 9.7 | 0.00 | 0.00 | 0.00 | 45 | 1016.0 |
| 20260509114040 | 20 | 65 | 4.8 | 8.0 | 0.00 | 0.00 | 0.00 | 45 | 1016.0 |
| 20260509114034 | 20 | 65 | 4.8 | 8.0 | 0.00 | 0.00 | 0.00 | 43 | 1016.2 |
| 20260509113046 | 20 | 87 | 4.8 | 11.3 | 0.00 | 0.00 | 0.00 | 43 | 1016.2 |
| 20260509113041 | 20 | 87 | 4.8 | 11.3 | 0.00 | 0.00 | 0.00 | 45 | 1016.2 |
| 20260509112012 | 20 | 86 | 4.8 | 11.3 | 0.00 | 0.00 | 0.00 | 45 | 1016.2 |
| 20260509111004 | 20 | 69 | 4.8 | 11.3 | 0.00 | 0.00 | 0.00 | 47 | 1016.4 |
| 20260509110046 | 20 | 69 | 4.8 | 11.3 | 0.00 | 0.00 | 0.00 | 47 | 1016.5 |
| 20260509110042 | 20 | 69 | 4.8 | 11.3 | 0.00 | 0.00 | 0.00 | 49 | 1016.6 |
| 20260509105021 | 20 | 81 | 4.8 | 11.3 | 0.00 | 0.00 | 0.00 | 49 | 1016.6 |
| 20260509105017 | 20 | 81 | 4.8 | 11.3 | 0.00 | 0.00 | 0.00 | 50 | 1016.7 |
| 20260509104015 | 20 | 85 | 3.2 | 8.0 | 0.00 | 0.00 | 0.00 | 50 | 1016.7 |
| 20260509104013 | 19 | 85 | 3.2 | 8.0 | 0.00 | 0.00 | 0.00 | 51 | 1016.8 |
| 20260509103029 | 19 | 85 | 3.2 | 8.0 | 0.00 | 0.00 | 0.00 | 51 | 1017.0 |
| 20260509102044 | 19 | 67 | 6.4 | 12.9 | 0.00 | 0.00 | 0.00 | 51 | 1017.0 |
| 20260509102040 | 18 | 67 | 6.4 | 12.9 | 0.00 | 0.00 | 0.00 | 54 | 1017.1 |
| 20260509101046 | 18 | 56 | 3.2 | 9.7 | 0.00 | 0.00 | 0.00 | 54 | 1017.2 |
| 20260509100040 | 18 | 71 | 3.2 | 12.9 | 0.00 | 0.00 | 0.00 | 54 | 1017.2 |
| 20260509100033 | 18 | 71 | 3.2 | 12.9 | 0.00 | 0.00 | 0.00 | 54 | 1017.3 |
| 20260509095043 | 18 | 60 | 4.8 | 11.3 | 0.00 | 0.00 | 0.00 | 54 | 1017.3 |
| 20260509095037 | 17 | 60 | 4.8 | 11.3 | 0.00 | 0.00 | 0.00 | 55 | 1017.4 |
| 20260509094026 | 17 | 37 | 3.2 | 9.7 | 0.00 | 0.00 | 0.00 | 59 | 1017.6 |
| 20260509092045 | 17 | 94 | 3.2 | 8.0 | 0.00 | 0.00 | 0.00 | 59 | 1017.6 |
| 20260509092040 | 16 | 94 | 3.2 | 8.0 | 0.00 | 0.00 | 0.00 | 61 | 1017.7 |
| 20260509091040 | 15 | 14 | 1.6 | 6.4 | 0.00 | 0.00 | 0.00 | 63 | 1017.9 |
| 20260509085005 | 15 | 61 | 4.8 | 9.7 | 0.00 | 0.00 | 0.00 | 63 | 1017.9 |
| 20260509084013 | 15 | 31 | 3.2 | 6.4 | 0.00 | 0.00 | 0.00 | 64 | 1018.2 |
| 20260509083041 | 15 | 31 | 3.2 | 6.4 | 0.00 | 0.00 | 0.00 | 64 | 1018.2 |
| 20260509083036 | 14 | 31 | 3.2 | 6.4 | 0.00 | 0.00 | 0.00 | 65 | 1018.4 |
| 20260509082042 | 14 | 56 | 3.2 | 8.0 | 0.00 | 0.00 | 0.00 | 65 | 1018.4 |
| 20260509082035 | 13 | 56 | 3.2 | 8.0 | 0.00 | 0.00 | 0.00 | 66 | 1018.4 |
| 20260509081027 | 13 | 73 | 3.2 | 8.0 | 0.00 | 0.00 | 0.00 | 66 | 1018.4 |
| 20260509081022 | 13 | 73 | 3.2 | 8.0 | 0.00 | 0.00 | 0.00 | 67 | 1018.4 |
| 20260509080045 | 13 | 57 | 4.8 | 9.7 | 0.00 | 0.00 | 0.00 | 67 | 1018.4 |
| 20260509080039 | 13 | 57 | 4.8 | 9.7 | 0.00 | 0.00 | 0.00 | 67 | 1018.4 |
| 20260509075009 | 13 | 52 | 3.2 | 9.7 | 0.00 | 0.00 | 0.00 | 67 | 1018.4 |
| 20260509074045 | 13 | 52 | 3.2 | 9.7 | 0.00 | 0.00 | 0.00 | 68 | 1018.5 |
| 20260509074040 | 12 | 52 | 3.2 | 9.7 | 0.00 | 0.00 | 0.00 | 68 | 1018.5 |
| 20260509073017 | 12 | 63 | 3.2 | 8.0 | 0.00 | 0.00 | 0.00 | 68 | 1018.5 |
| 20260509073015 | 12 | 63 | 3.2 | 8.0 | 0.00 | 0.00 | 0.00 | 69 | 1018.5 |
| 20260509072020 | 12 | 41 | 3.2 | 8.0 | 0.00 | 0.00 | 0.00 | 69 | 1018.5 |
| 20260509072016 | 12 | 41 | 3.2 | 8.0 | 0.00 | 0.00 | 0.00 | 70 | 1018.6 |
| 20260509071039 | 12 | 41 | 3.2 | 8.0 | 0.00 | 0.00 | 0.00 | 70 | 1018.6 |
| 20260509071032 | 12 | 41 | 3.2 | 8.0 | 0.00 | 0.00 | 0.00 | 70 | 1018.6 |